sat.trackr.live / text

‹ back to catalog

ONEWEB-0052

NORAD 45156 · 2020-008AB

PAYLOAD ACTIVE UNKNOWN

§ Identity

Operator
Country
UK
Launch date
2020-02-06
Launch site
TYMSC
Launch vehicle
Mass (kg)
RCS (m²)

Purposes: comms

External: N2YO · Heavens-Above · Gunter

§ Orbital elements

Epoch: 2026-09-20T01:55:34.266144Z

Period
109.89 min
Inclination
87.8907°
Eccentricity
0.0001985
Mean motion
13.10374615 rev/d
Perigee alt
1,220.2 km
Apogee alt
1,223.2 km
Semi-major
7,599.8 km
B*
1.7743e-3
RAAN
17.3751°
Arg perigee
110.4700°
Mean anomaly
249.6640°
Rev number
32,036

§ Raw data

ONEWEB-00521 45156U 20008AB  26263.08025771  .00000632  00000+0  17743-2 0  99942 45156  87.8907  17.3751 0001985 110.4700 249.6640 13.10374615320368

JSON: /api/v1/satellites/45156 · /tle

For live sub-satellite position, see the globe view (requires WebGL).

§ Visibility from observer

Set your observer location to see the next 7 days of passes ≥ 10°. The values pass through the URL so the page stays shareable.

No JS? Fill the form by hand. The geolocation button needs JavaScript.